sat.trackr.live / text

‹ back to catalog

QIANFAN-30

NORAD 61563 · 2024-185M

PAYLOAD ACTIVE UNKNOWN

§ Identity

Operator
Country
PRC
Launch date
2024-10-15
Launch site
TAISC
Launch vehicle
Mass (kg)
RCS (m²)

External: N2YO · Heavens-Above · Gunter

§ Orbital elements

Epoch: 2026-05-25T03:24:33.976224Z

Period
106.66 min
Inclination
88.9832°
Eccentricity
0.0005607
Mean motion
13.50045972 rev/d
Perigee alt
1,067.9 km
Apogee alt
1,076.3 km
Semi-major
7,450.2 km
B*
2.0809e-4
RAAN
63.9966°
Arg perigee
294.4684°
Mean anomaly
65.5881°
Rev number
9,011

§ Raw data

QIANFAN-301 61563U 24185M   26145.14205991  .00000144  00000+0  20809-3 0  99902 61563  88.9832  63.9966 0005607 294.4684  65.5881 13.50045972 90115

JSON: /api/v1/satellites/61563 · /tle

For live sub-satellite position, see the globe view (requires WebGL).

§ Visibility from observer

Set your observer location to see the next 7 days of passes ≥ 10°. The values pass through the URL so the page stays shareable.

No JS? Fill the form by hand. The geolocation button needs JavaScript.